Home > Weather > Nikaia > Past weeks

Flag for Greece Past Weather in Nikaia, Greece — Yesterday and Last 2 Weeks

Now
82 °F

Sunny.


Feels Like: 82 °F
Forecast: 75 / 92 °F
Wind: 12 mph from Northwest

Location: Elefsis Airport

Current Time: Jul 2, 2016 at 8:47:12 AM

Latest Report: Jul 2, 2016 at 7:50 AM


Visibility: 10 mi

Pressure: 29.92 "Hg

Humidity: 42%

Dew Point: 57 °F

Location of NikaiaLocation

Past Weather in Nikaia — Graph

°F

Nikaia Temperature Yesterday

Maximum temperature yesterday: 95 °F (at 4:20 PM)
Minimum temperature yesterday: 72 °F (at 3:50 AM)
Average temperature yesterday: 83 °F

High & Low Weather Summary for the Past Weeks

 TemperatureHumidityPressure
High104 °F (Jun 19, 1:20 PM)88% (Jun 28, 7:20 PM)30.04 "Hg (Jun 28, 7:20 PM)
Low68 °F (Jun 19, 8:20 AM)14% (Jun 19, 2:20 PM)29.68 "Hg (Jun 25, 6:20 PM)
Average86 °F39%29.87 "Hg
* Reported Jun 17 7:20 AM — Jul 2 7:20 AM, Nikaia, Weather by CustomWeather, © 2016

Note: Actual official high and low records may vary slightly from our data, if they occured in-between our weather recording intervals... More about our weather records

Advertising

Nikaia Weather History for the Previous 24 Hours

Scroll right to see more
 ConditionsComfort  
Time TempWeatherWind HumidityBarometerVisibility
7:20 AM
Sat, Jul 2
81 °FSunny.12 mph45%29.92 "Hg10 mi
6:50 AM79 °FClear.7 mph48%29.92 "Hg10 mi
6:20 AM79 °FClear.8 mph48%29.92 "Hg10 mi
5:50 AM79 °FClear.5 mph48%29.92 "Hg10 mi
5:20 AM77 °FClear.5 mph51%29.92 "Hg10 mi
4:50 AM77 °FClear.2 mph51%29.92 "Hg10 mi
3:50 AM77 °FClear.No wind51%29.92 "Hg10 mi
3:20 AM77 °FClear.No wind54%29.92 "Hg10 mi
2:50 AM77 °FClear.No wind51%29.92 "Hg10 mi
2:20 AM79 °FClear.No wind48%29.95 "Hg10 mi
1:50 AM79 °FClear.No wind51%29.95 "Hg10 mi
1:20 AM77 °FClear.No wind57%29.95 "Hg10 mi
12:50 AM79 °FClear.No wind54%29.95 "Hg10 mi
12:20 AM79 °FClear.No wind58%29.95 "Hg10 mi
11:50 PM
Fri, Jul 1
81 °FClear.No wind58%29.95 "Hg10 mi
11:20 PM81 °FClear.No wind62%29.95 "Hg10 mi
10:50 PM81 °FClear.No wind62%29.95 "Hg10 mi
10:20 PM82 °FClear.3 mph51%29.95 "Hg10 mi
9:50 PM82 °FSunny.6 mph55%29.95 "Hg10 mi
9:20 PM84 °FSunny.2 mph48%29.92 "Hg10 mi
8:50 PM84 °FSunny.8 mph48%29.92 "Hg10 mi
8:20 PM84 °FScattered clouds.5 mph48%29.92 "HgN/A
7:50 PM88 °FScattered clouds.7 mph40%29.92 "HgN/A
7:20 PM88 °FScattered clouds.7 mph40%29.92 "HgN/A
6:50 PM90 °FPassing clouds.9 mph38%29.92 "HgN/A
6:20 PM91 °FPassing clouds.9 mph34%29.89 "HgN/A
5:50 PM93 °FPassing clouds.9 mph32%29.89 "HgN/A
5:20 PM93 °FPassing clouds.12 mph30%29.92 "HgN/A
4:50 PM93 °FPassing clouds.12 mph30%29.92 "HgN/A
4:20 PM95 °FPassing clouds.12 mph26%29.92 "HgN/A
3:50 PM93 °FPassing clouds.9 mph28%29.92 "HgN/A
3:20 PM93 °FPassing clouds.12 mph28%29.92 "HgN/A
2:50 PM93 °FScattered clouds.12 mph30%29.92 "HgN/A
2:20 PM93 °FPassing clouds.10 mph30%29.95 "HgN/A
1:50 PM93 °FPassing clouds.10 mph30%29.95 "HgN/A
1:20 PM93 °FPassing clouds.8 mph30%29.95 "HgN/A
12:50 PM93 °FPassing clouds.7 mph30%29.95 "HgN/A
12:20 PM91 °FSunny.7 mph30%29.95 "Hg10 mi
11:50 AM91 °FSunny.6 mph30%29.95 "Hg10 mi
11:20 AM90 °FSunny.5 mph29%29.98 "Hg10 mi
10:50 AM88 °FSunny.6 mph33%29.98 "Hg10 mi
10:20 AM86 °FSunny.5 mph40%29.98 "Hg10 mi
9:50 AM86 °FSunny.5 mph40%29.98 "Hg10 mi
9:20 AM84 °FSunny.5 mph43%29.98 "Hg10 mi
8:50 AM82 °FSunny.No wind45%29.98 "Hg10 mi
8:20 AM82 °FSunny.No wind45%29.98 "Hg10 mi
Weather by CustomWeather, © 2016

See weather overviewHow to use our weather pages